www.pogodaiklimat.ru

Погода и климат >> Архив погоды >> Гондурас >> Choluteca


ПОГОДА в Choluteca

  • Прогноз погоды в Choluteca
  • Монитор погоды в Choluteca
  • Климат города

АРХИВ ПОГОДЫ в Choluteca

Время (UTC), дата Ветер
(напр.,м/с)
 
Видим.   Явления Облачность Т
(С)
Тd
(С)
f
(%)
Тe
(С)
Тes
(С)
Комфортность P
(гПа)
Po
(гПа)
Тmin
(С)
Tmax
(С)
R
(мм)
R24
(мм)
S
(см)
18 13.08 С 4 20 км мгла {туман} 9/4 1020 м
[Cu med, cong Ac lent Cs]
+32.8 +23.6 59 +44 +49 опасность
перегрева
1011.2 1005.5 +23.0 +32.8
21 13.08 СВ 5 20 км мгла {туман} 9/5 1020 м
[Cb cap Ac lent Ci sp]
+34.0 +24.0 56 +46 +47 опасность
перегрева
1009.2 1003.5
00 14.08 штиль 0 20 км мгла {гроза, туман} 9/5 900 м
[Cb cap As op]
+29.4 +23.8 72 +40 +40 очень
душно
1010.0 1004.3 +23.0 +34.0
12 14.08 штиль 0 20 км дымка 8/1 900 м
[Sc Ac trans Cs]
+24.0 +23.2 95 +32 +32 очень
душно
1011.9 1006.2 +24.0 +34.0
15 14.08 СВ 1 25 км мгла {туман} 8/4 960 м
[Cu hum Ac trans Ci fib]
+30.6 +23.2 65 +41 +47 опасность
перегрева
1011.6 1005.9
18 14.08 ЮЗ 2 25 км мгла {туман} 5/5 1020 м
[Cu hum]
+34.0 +24.3 57 +46 +57 опасность
перегрева
1010.0 1004.3 +24.0 +34.0
21 14.08 ЮЗ 2 28 км мгла {туман} 8/5 1020 м
[Cu med, cong Ac trans]
+34.6 +25.5 59 +49 +52 опасность
перегрева
1008.0 1002.3
00 15.08 ЮЗ 1 28 км мгла {туман} 6/4 960 м
[Cu med, cong Ac trans Ci fib]
+31.0 +24.7 69 +44 +44 опасность
перегрева
1008.5 1002.8 +24.0 +34.6
12 15.08 штиль 0 20 км дымка 9/3 900 м
[Sc Cs]
+23.8 +22.4 92 +31 +31 очень
душно
1010.7 1005.0 +23.8 +34.6
15 15.08 С 3 10 км мгла {туман} 6/3 900 м
[Cu hum Cs]
+30.6 +22.5 62 +40 +47 очень
душно
1011.7 1006.0
18 15.08 С 4 20 км мгла {туман} 9/3 1020 м
[Cu med, cong Ac und Ci fib]
+34.0 +23.1 53 +44 +50 опасность
перегрева
1010.2 1004.5 +23.8 +34.0
21 15.08 Ю 3 20 км мгла {туман} 8/5 1020 м
[Cb calv Ac und]
+33.6 +23.9 57 +45 +48 опасность
перегрева
1008.2 1002.5
00 16.08 штиль 0 20 км мгла {гроза, туман} 9/4 900 м
[Cb cap As op]
+29.6 +24.5 74 +42 +42 опасность
перегрева
1009.4 1003.7 +23.9 +34.4
12 16.08 С 2 15 км мгла 5/1 900 м
[Sc Ac trans Ci fib]
+25.8 +23.7 88 +35 +35 очень
душно
1010.4 1004.7 +25.8 +34.4
15 16.08 С 3 25 км мгла {туман} 4/3 960 м
[Cu hum Ac trans Ci fib]
+31.1 +22.4 60 +40 +47 очень
душно
1011.5 1005.8
21 16.08 ЮЗ 2 28 км мгла {туман} 6/6 1020 м
[Cu med, cong]
+33.2 +24.9 62 +47 +51 опасность
перегрева
1009.0 1003.3
12 17.08 С 5 20 км мгла 9/3 900 м
[Sc Ac trans Ci fib]
+26.2 +23.5 85 +36 +36 очень
душно
1010.2 1004.5 +26.2 +34.9
15 17.08 СВ 4 20 км мгла {туман} 6/3 1020 м
[Cu hum Ac trans Cs]
+31.6 +23.0 60 +42 +46 опасность
перегрева
1011.2 1005.5
18 17.08 СВ 5 20 км мгла {туман} 9/4 1020 м
[Cu med, cong Ac trans]
+33.2 +23.0 55 +43 +47 опасность
перегрева
1009.2 1003.5 +26.2 +33.2
21 17.08 С 4 20 км мгла {туман} 9/4 1020 м
[Cu med, cong Cs]
+34.2 +23.8 55 +46 +49 опасность
перегрева
1008.4 1002.7
00 18.08 С 5 10 км мгла {туман} 9/3 900 м
[Cu hum Ac trans Ci fib]
+31.4 +23.5 63 +42 +42 опасность
перегрева
1009.2 1003.5 +26.2 +34.4
12 18.08 С 3 20 км мгла 6/1 900 м
[Sc Ci fib]
+26.0 +22.4 81 +34 +34 очень
душно
1010.7 1005.0 +26.0
15 18.08 С 6 28 км мгла {туман} 1/1 960 м
[Cu hum]
+30.6 +22.6 62 +40 +44 очень
душно
1011.2 1005.5
18 18.08 С 5 28 км мгла {туман} 4/4 1020 м
[Cu hum]
+34.6 +22.9 51 +45 +51 опасность
перегрева
1010.4 1004.7 +26.0 +34.6
21 18.08 ЮЗ 3 28 км мгла {туман} 4/4 1020 м
[Cu hum]
+35.1 +24.1 53 +47 +52 опасность
перегрева
1007.2 1002.5
12 19.08 штиль 0 20 км мгла 9/3 900 м
[Sc Cs]
+23.4 +22.0 92 +32 +32 очень
душно
1011.7 1006.0 +23.4 +35.7
15 19.08 С 5 20 км мгла {туман} 9/3 900 м
[Cu hum Cs]
+29.8 +22.0 63 +38 +42 очень
душно
1012.4 1006.7
18 19.08 С 2 20 км мгла {туман} 9/4 1020 м
[Cu med, cong Cs]
+34.6 +24.0 54 +46 +57 опасность
перегрева
1010.7 1005.0 +23.4 +34.6
21 19.08 Ю 2 20 км мгла {туман} 9/5 1020 м
[Cu med, cong Cs]
+34.2 1008.4 1002.7
00 20.08 штиль 0 20 км мгла {туман} 9/4 1020 м
[Cu med, cong Ac trans Ci fib]
+32.0 +24.3 64 +44 +44 опасность
перегрева
1008.2 1003.5 +23.4 +35.2
12 20.08 штиль 0 25 км мгла 9/1 900 м
[Sc Ac trans Ci fib]
+24.4 +22.9 91 +32 +32 очень
душно
1010.9 1005.2 +24.4 +35.2

 

Местоположение метеостанции Choluteca (Гондурас): широта 13.30 долгота -87.18 высота над уровнем моря 48 м.

В архиве по умолчанию представлена погода в Choluteca за последнюю неделю. Архивные данные за месяц целиком и за предыдущие месяцы, начиная с января 2011 года, Вы можете получить, выбрав интересующий диапазон дат из раскрывающегося списка и нажав кнопку "Ввод!".

Внимание! Время в таблицах - всемирное. Для получения местного времени необходимо прибавить поправку, которая в Choluteca равна -6 ч.

Смотрите также архив погоды в соседних городах и на ближайших метеорологических станциях:

Погода в Amapala (Гондурас) (51 км)
Погода в Chinandega (Никарагуа) (75 км)
Погода в Tegucigalpa (Гондурас) (83 км)
Погода в Jinotega (Никарагуа) (132 км)
Погода в La Esperanza (Гондурас) (155 км)
Погода в Managua (Никарагуа) (168 км)
Погода в Yoro (Гондурас) (208 км)
Погода в Catacamas (Гондурас) (223 км)
Погода в Juigalpa (Никарагуа) (237 км)
Погода в Santa Rosa De Copan (Гондурас) (239 км)

Пояснения к столбцам:

Ветер - указаны скорость ветра в м/с - средняя за 10 мин, порывы в срок и между сроками (в фигурных скобках) и направление, откуда дует ветер: С - северный, СВ - северо-восточный, В - восточный, ЮВ - юго-восточный, Ю - южный, ЮЗ - юго-западный, З - западный, СЗ - северо-западный.
Видимость - горизонтальная дальность видимости в метрах или километрах. При видимости от 1 до 10 км при отсутствии осадков обычно наблюдается дымка, при ухудшении видимости до 1 км и менее - туман. В сухую погоду видимость может ухудшаться дымом, пылью или мглою.
Явления - указаны атмосферные явления, наблюдавшиеся в срок или в последний час перед сроком; фигурными скобками обозначены явления, наблюдавшиеся между сроками (за 1-3 часа до срока); квадратными скобками обозначены град или гололедные отложения с указанием их диаметра в мм.
Облачность - указаны через наклонную черту общая и нижняя облачность в баллах и высота нижней границы облаков в метрах; квадратными скобками обозначены формы облаков: Ci - перистые, Cs - перисто-слоистые, Cc - перисто-кучевые, Ac - высококучевые, As - высокослоистые, Sc - слоисто-кучевые, Ns - слоисто-дождевые, Cu - кучевые, Cb - кучево-дождевые. Подробнее классификацию облаков см. в Атласе облаков (PDF).
T - Температура воздуха - температура, измеренная на высоте 2 м над землей.
Td - Температура точки росы - температура, при понижении до которой содержащийся в воздухе водяной пар достигнет насыщения.
f - Относительная влажность воздуха - влажноcть воздуха, измеренная на высоте 2 м над землей.
Te - Эффективная температура - температура, которую ощущает одетый по сезону человек в тени. Характеристика душности погоды. При расчете учитывается влияние влажности воздуха и скорости ветра на теплоощущения человека.
Tes - Эффективная температура на солнце - температура, которую ощущает человек, с поправкой на солнечный нагрев. Характеристика знойности погоды. Зависит от высоты солнца над горизонтом, облачности и скорости ветра. Ночью, в пасмурную погоду, а также при ветре 12 м/с и более поправка равна нулю.
P - Атмосферное давление - приведенное к уровню моря атмосферное давление.
Po - Атмосферное давление - измеренное на уровне метеостанции атмосферное давление.
Tmin - Минимальная температура - минимум температуры воздуха на высоте 2 м над землей.
Tmax - Максимальная температура - максимум температуры воздуха на высоте 2 м над землей.
R - Количество осадков - Количество выпавших осадков за период времени, мм. При наведении курсора мыши на число - период времени, за который выпало указанное количество осадков.
R24 - Количество осадков - Количество выпавших осадков за 24 часа, мм.
S - Снежный покров - Высота снежного покрова, см. При наведении курсора мыши на число - состояние снежного покрова и степень покрытия местности в баллах.